Location: Newark
(5.8900°S, 42.6378°W)
Time: 15:03:05
(UTC+00:00)

Vanguard 1 Rocket - Pass Details

Date: 20 October 2019
Orbit: 651 x 4225 km, 34.3° (Epoch: 14 November)

Event Time Altitude Azimuth Distance (km) Brightness Sun altitude
Rises 10:23:31 0° 257° (WSW) 3,523 9.9 27.6°
Reaches altitude 10° 10:25:47 10° 266° (W) 2,824 9.5 28.1°
Maximum altitude 10:32:04 37° 332° (NNW) 2,128 9.3 29.7°
Drops below altitude 10° 10:43:15 10° 35° (NE) 4,998 11.6 32.4°
Sets 10:48:55 0° 42° (NE) 6,647 12.2 33.8°
